Dewpoint
48 49 49 48 48 46 40 37 29 42 42 30 31 30 31 33 32 33 32 31 28 27 28 29 28 27 30 33 33 31 32 27 25 27 31 32 31 28 26 19 19 23 21 12
47 49 49 49 48 47 39 36 35 41 38 25 28 31 31 32 31 30 31 30 31 30 29 28 31 32 35 35 33 31 31 27 22 23 26 31 31 30 27 24 24 22 15 4
46 48 49 49 50 49 39 32 24 31 33 32 29 28 29 29 32 30 29 29 29 27 28 30 30 32 34 35 35 34 30 27 22 11 15 28 29 30 28 26 24 21 21 17
46 47 49 48 51 49 35 31 29 32 23 28 30 30 29 27 26 30 29 26 26 26 25 25 27 31 33 35 36 32 27 20 24 24 24 26 26 28 29 27 26 23 19 20
47 46 48 48 48 44 34 29 28 30 28 29 28 26 26 24 28 26 24 24 27 26 23 23 24 29 29 27 34 31 30 20 24 20 24 24 23 24 26 29 28 27 27 27
47 46 48 48 45 42 35 36 35 25 28 27 24 21 26 26 29 30 29 27 24 25 27 28 29 29 30 29 30 29 27 24 20 8 20 19 9 15 22 25 28 27 24 24
47 47 46 47 45 40 37 37 34 28 18 26 23 24 28 27 29 26 31 29 24 29 32 31 29 30 29 30 30 29 27 24 23 18 16 -10 -1 17 21 22 23 27 25 24
47 47 46 46 46 41 37 38 34 27 15 24 24 26 26 28 28 27 26 29 31 32 27 19 16 20 26 27 27 28 27 25 21 15 14 10 7 16 17 16 8 17 22 21
47 47 46 46 45 42 37 37 37 31 17 12 25 26 26 22 21 23 29 32 33 28 23 18 6 0 13 21 25 28 28 26 22 21 11 -8 -4 13 21 19 -0 10 20 17
48 47 46 46 46 43 38 38 38 33 22 23 26 24 24 25 23 18 25 30 30 26 21 14 10 7 15 12 16 24 26 26 24 23 19 17 18 18 21 2 1 13 19 19
49 47 46 46 46 44 38 38 39 33 26 26 33 31 28 29 25 16 23 26 26 26 19 16 16 15 16 15 16 23 21 21 22 23 22 6 22 21 12 10 19 20 21 22
50 48 46 46 46 44 39 33 40 38 32 28 35 36 36 33 30 24 28 19 24 25 19 21 20 18 19 15 5 21 14 20 17 21 15 20 23 21 22 23 23 22 22 24
49 49 48 45 45 44 40 39 39 36 32 29 31 33 33 33 33 34 28 30 30 28 29 24 23 17 20 13 14 13 17 22 19 17 18 20 19 21 23 24 23 23 26 27
50 50 49 46 45 43 41 37 38 37 34 28 28 34 32 33 33 33 34 32 35 33 32 27 24 19 22 17 18 16 16 20 17 18 16 22 19 24 27 27 27 25 27 28
49 48 50 48 45 41 36 36 37 38 33 28 29 33 32 34 33 33 34 34 33 32 29 28 25 28 25 27 26 24 21 18 15 16 20 25 25 27 28 26 24 24 26 28
48 46 47 48 45 42 38 34 35 37 36 31 28 31 31 33 33 33 33 33 33 32 29 28 30 31 28 24 23 25 26 25 26 25 27 27 27 28 28 26 24 25 27 29
47 46 47 48 44 40 38 36 37 39 37 32 29 28 31 32 32 32 32 32 32 31 30 30 30 31 32 28 25 27 28 29 29 29 26 18 22 20 25 24 23 25 27 27
46 46 48 46 44 41 38 38 39 38 34 32 28 27 28 31 29 28 31 31 31 31 30 30 30 30 30 27 29 30 29 26 27 26 26 24 24 24 22 22 22 23 23 24
46 48 46 42 39 37 37 39 37 36 33 28 29 26 23 30 30 29 30 29 26 29 28 28 29 27 26 28 28 28 27 23 23 24 21 20 21 22 22 22 22 23 23 24
46 42 40 34 37 40 37 33 31 32 32 31 29 31 28 28 28 28 28 28 26 24 27 29 27 26 28 29 29 29 27 23 21 20 21 20 21 22 23 23 23 23 24 24
41 38 36 36 37 33 32 30 29 29 27 31 30 30 28 29 26 26 28 26 26 23 23 26 24 24 26 27 23 23 20 19 19 19 20 21 22 22 23 24 24 24 24 23
40 37 35 34 33 31 27 25 28 27 24 28 28 28 29 28 29 28 28 25 25 21 26 24 21 23 25 24 22 22 22 22 22 21 22 22 23 24 24 25 25 25 25 25
37 34 33 29 29 24 22 14 22 24 27 27 28 27 28 28 27 26 26 24 22 24 23 21 22 23 24 23 23 23 24 24 23 23 23 23 23 24 25 25 26 26 26 25
32 29 24 21 22 22 23 21 22 25 26 27 27 26 26 26 26 25 23 24 23 20 19 19 21 22 22 22 24 24 23 24 25 24 24 24 24 25 26 26 26 26 26 26
31 29 21 24 23 25 25 27 28 28 28 27 26 25 26 26 24 25 23 21 20 20 19 20 21 22 22 22 23 23 23 23 23 24 24 24 24 25 26 26 26 27 27 27
30 28 24 25 24 25 27 27 26 28 28 27 26 24 23 23 24 23 21 20 18 19 22 22 22 22 23 23 23 23 23 23 23 24 24 25 25 26 26 27 27 27 26 26
27 25 28 27 27 26 26 27 28 30 31 28 27 24 22 22 21 21 22 20 20 21 22 22 22 22 23 23 23 23 23 23 24 24 24 24 25 26 25 25 25 26 27 27
Wind_Speed
15 16 16 15 10 2 2 1 2 3 3 6 4 4 2 2 1 1 0 2 4 4 5 4 2 4 1 2 4 3 1 5 5 2 1 2 2 5 5 4 4 2 1 9
15 16 17 16 11 5 2 2 1 2 1 6 5 2 3 3 2 3 1 2 2 1 3 3 3 2 2 2 2 4 5 2 6 1 1 1 5 6 5 6 3 8 5 6
17 17 19 21 13 9 3 2 1 4 5 2 8 5 3 3 3 3 2 3 3 3 3 4 4 3 2 2 3 6 2 3 4 6 2 5 6 9 12 8 6 5 14 13
16 17 19 21 9 12 2 4 2 1 1 3 2 2 6 4 2 2 5 3 4 3 3 2 3 2 2 4 2 3 2 2 1 7 9 6 6 7 15 20 14 13 6 14
16 16 17 18 6 2 3 0 2 2 2 1 1 1 3 5 4 5 2 4 3 2 4 3 5 6 4 2 1 2 1 2 0 4 2 4 10 15 17 20 17 23 22 37
14 16 16 17 12 2 2 1 1 1 0 1 1 1 2 3 3 1 1 4 4 3 3 3 4 4 6 6 6 4 2 2 2 3 5 9 11 12 19 9 9 16 19 18
12 14 16 16 12 3 3 2 2 1 2 3 3 2 2 0 1 1 1 2 1 3 8 9 8 10 8 6 7 3 5 3 2 5 7 1 2 1 5 16 11 20 16 21
9 12 13 15 14 6 4 2 2 2 3 3 3 5 4 4 2 1 1 1 2 6 3 2 2 3 2 4 6 1 3 4 1 2 4 9 2 1 3 2 4 3 11 13
6 9 12 13 14 6 5 3 2 3 1 3 0 4 4 4 4 2 1 2 2 4 3 2 3 4 2 3 1 5 5 5 3 2 3 1 2 2 4 3 4 2 2 10
3 6 9 11 12 9 4 4 1 2 1 2 3 2 3 4 3 4 2 3 2 2 2 3 4 2 2 3 6 6 4 2 9 7 5 9 10 5 3 1 1 5 6 12
3 2 5 8 11 11 2 2 3 2 0 2 4 1 3 3 3 4 5 4 1 2 4 4 3 4 5 3 4 6 10 12 7 6 5 4 6 4 2 2 6 11 13 9
4 3 2 5 8 11 2 2 2 1 2 1 1 1 1 0 2 4 3 1 3 5 4 2 2 3 4 5 3 2 6 9 5 13 6 1 4 2 2 4 12 13 12 21
6 4 3 2 4 7 4 3 3 2 1 1 1 1 2 2 3 1 2 2 3 4 4 6 3 4 5 4 6 4 6 6 4 2 3 3 14 5 5 6 11 13 17 19
5 5 5 3 2 5 3 3 2 2 2 1 1 1 2 3 4 1 2 4 3 4 1 2 4 4 5 4 3 5 3 8 5 6 7 7 4 3 14 14 11 15 15 15
6 5 6 5 3 6 9 5 3 1 2 1 2 1 4 5 2 2 2 4 4 2 1 2 4 2 4 1 1 8 7 4 4 2 2 2 15 12 17 16 20 20 18 22
8 6 2 8 6 4 3 2 2 4 1 1 2 2 2 5 7 9 7 4 3 2 3 3 2 2 3 4 5 3 5 4 5 4 2 10 15 10 3 14 17 18 17 17
10 8 2 10 6 2 0 2 1 2 2 1 3 1 1 1 2 3 3 3 3 2 3 3 2 2 3 3 5 3 7 5 4 2 2 1 4 9 18 14 14 14 13 11
11 8 11 13 13 9 1 4 3 2 4 2 3 2 1 0 1 1 3 1 2 2 3 1 3 1 2 7 8 6 2 3 7 4 5 5 11 13 15 15 15 19 20 20
12 17 15 5 2 2 2 1 4 4 2 3 3 4 2 1 2 2 2 1 2 1 2 2 2 4 9 6 6 4 2 3 2 4 5 5 8 14 16 15 16 18 22 19
21 4 3 3 2 2 2 2 1 2 3 2 3 1 4 2 2 2 3 1 2 2 1 2 3 7 9 11 9 3 1 3 2 2 7 6 12 14 17 16 16 14 18 20
5 5 3 3 0 3 2 0 0 1 2 4 2 6 4 3 4 4 2 4 2 2 3 4 3 5 3 2 7 5 5 3 1 2 7 8 11 15 17 19 15 16 18 19
11 10 7 3 3 3 2 3 1 4 3 3 3 4 4 1 0 3 2 3 2 4 2 3 4 5 3 4 7 6 3 3 5 6 12 14 14 14 15 18 21 21 21 22
6 4 4 4 1 3 7 9 5 4 4 5 4 4 3 2 1 3 2 4 5 2 4 4 6 1 1 4 7 4 4 4 5 8 11 14 17 18 16 20 21 21 22 22
4 7 7 8 7 7 7 6 5 3 4 7 5 4 3 2 4 4 3 2 3 3 4 6 3 6 5 4 5 6 10 11 14 16 17 19 21 21 19 21 19 20 24 24
4 5 6 9 4 2 5 4 3 3 5 7 5 3 2 2 3 3 3 3 4 6 6 4 10 6 4 7 8 10 14 16 16 17 19 20 22 23 24 17 17 19 24 24
3 3 5 3 4 5 3 4 3 7 7 4 2 3 1 4 3 5 6 4 7 5 5 6 5 5 9 12 14 15 15 17 18 18 20 21 20 21 25 23 21 22 22 25
3 2 3 5 4 4 3 5 5 8 7 3 3 2 4 4 2 4 5 8 4 3 4 6 8 13 15 16 16 15 15 16 16 18 18 20 20 22 22 27 27 22 22 23
Wind_Direction
358 356 354 353 354 105 25 113 55 349 5 49 46 35 13 343 108 167 242 19 88 138 158 129 159 166 182 175 154 108 103 112 139 157 17 174 174 177 165 167 196 159 164 276
358 355 351 347 333 203 124 3 355 357 18 83 47 355 38 50 33 23 94 105 79 121 118 111 122 115 21 137 109 154 177 103 112 53 333 25 212 198 160 115 112 208 184 257
358 357 354 349 338 182 113 54 48 10 58 36 132 128 41 54 6 50 49 66 52 74 61 40 130 117 54 51 83 73 92 146 197 186 157 141 194 194 188 172 186 203 232 271
2 358 0 2 27 153 59 29 75 102 47 51 100 137 145 133 113 30 27 59 77 107 111 82 110 114 113 49 59 58 79 249 268 267 252 239 236 205 197 208 208 222 249 251
1 0 3 12 31 70 67 39 150 67 87 28 241 6 197 162 172 163 155 138 159 106 142 161 177 153 184 176 117 115 39 199 222 278 40 213 257 242 228 225 234 250 268 281
2 360 2 12 23 81 89 121 35 118 25 127 135 271 188 205 157 186 67 149 143 146 141 125 88 93 113 150 155 157 107 125 10 273 345 318 285 257 212 200 207 224 238 249
2 2 3 11 25 91 122 138 121 125 252 202 202 154 121 157 328 13 62 110 105 146 114 109 91 71 76 81 59 77 144 115 51 296 344 292 260 159 195 213 235 219 252 270
359 3 6 10 17 47 89 123 121 134 269 230 224 187 155 127 43 53 83 75 110 141 88 68 71 32 102 55 51 145 83 122 98 287 268 300 34 125 139 166 37 248 240 274
350 2 5 11 16 33 83 64 134 108 132 255 126 167 184 182 172 132 140 64 102 73 99 131 202 211 162 179 114 52 84 92 149 175 289 253 216 212 193 174 175 40 177 306
327 357 4 8 15 28 97 59 356 107 152 235 158 196 198 137 132 143 165 167 150 54 150 195 206 209 158 182 182 174 152 187 216 215 264 280 253 228 143 295 253 327 300 314
270 330 360 5 9 19 77 105 23 57 224 251 189 187 147 136 158 174 162 123 166 121 179 187 204 191 203 205 186 184 186 168 189 171 216 266 188 115 294 332 327 311 303 300
245 263 331 9 10 15 78 35 4 21 162 264 338 33 29 25 148 152 166 187 166 169 122 207 144 201 174 188 244 207 232 203 192 198 223 258 194 270 104 330 307 301 297 308
228 233 255 336 18 23 59 112 4 28 78 6 103 178 22 68 26 329 190 248 177 171 163 153 165 250 158 214 245 234 230 185 236 256 142 241 269 258 239 311 308 305 301 300
221 222 205 209 20 38 80 91 9 82 81 285 265 318 69 334 355 162 157 138 89 101 132 162 172 202 187 229 243 235 248 162 199 254 298 322 136 343 335 327 316 314 307 297
202 208 188 185 135 94 86 81 59 85 106 269 265 337 6 2 12 117 99 145 128 135 162 201 226 176 165 185 221 242 185 197 188 271 242 304 292 313 325 337 333 328 326 319
185 198 199 169 145 135 88 29 22 13 55 58 287 310 20 41 74 92 98 104 114 131 173 223 264 268 188 203 230 265 161 140 174 228 224 258 277 288 260 322 319 318 316 307
182 185 119 152 132 80 117 180 214 345 349 88 286 269 349 43 55 28 75 78 118 135 166 208 197 237 226 238 234 155 133 196 255 260 327 337 348 327 319 314 310 309 306 305
184 176 133 121 109 108 83 3 16 91 98 63 249 249 231 128 146 123 355 99 69 65 166 168 196 190 224 252 233 216 177 65 130 41 357 268 293 314 323 324 330 343 347 343
150 133 127 111 90 158 160 92 61 50 153 196 178 207 193 91 100 102 84 73 158 25 211 236 167 207 226 242 190 169 122 132 137 316 324 317 323 323 332 338 341 339 334 335
134 114 151 171 122 135 86 31 65 32 346 67 211 111 199 149 149 138 128 40 154 193 205 124 226 258 257 247 239 244 141 150 150 25 0 326 325 328 327 326 318 311 311 312
157 148 134 122 133 100 58 263 197 59 258 196 203 188 194 205 159 167 205 164 153 207 210 188 234 256 242 114 122 128 114 105 64 262 286 285 287 305 313 316 308 307 309 309
154 124 112 124 106 91 152 209 249 215 232 201 184 199 205 195 137 127 173 160 145 224 161 215 247 244 223 148 114 102 70 357 329 318 317 313 306 302 303 306 306 309 308 307
79 85 115 158 131 186 198 190 201 209 188 179 167 177 176 129 125 97 137 177 215 122 195 240 240 284 202 119 86 67 351 317 311 314 306 307 307 306 303 303 299 300 300 300
135 166 170 199 184 213 193 189 164 176 144 159 154 139 177 157 157 149 171 153 139 211 235 234 217 168 163 211 249 259 279 300 285 287 299 306 308 307 299 296 296 298 298 295
142 146 193 201 199 145 167 146 121 148 135 139 139 107 163 149 150 160 121 171 238 230 237 211 154 160 236 260 263 272 279 289 291 291 297 296 296 297 296 290 288 288 294 297
114 129 134 143 143 165 156 175 161 157 139 124 96 132 169 225 172 175 197 192 224 241 218 182 186 260 279 278 277 279 278 280 285 288 286 286 285 289 297 302 298 290 287 289
130 144 97 134 107 134 160 170 167 154 148 188 143 189 225 124 189 227 203 215 228 214 197 237 270 289 293 290 284 277 277 281 282 283 280 281 286 291 295 297 297 292 285 280